Retour au catalogue

OPTUS B3 PKM

ActifGTO
NORAD 23229·ROCKET BODY·🇦🇺 Australia

Lancé Aug 27, 1994 depuis Xichang Satellite Launch Center

Loading…

TLE

VieillissantSource: Space-Track

Époque: Sep 14, 2026, 08:57 UTC

1 23229U 94055C   26257.37335031  .00000526  00000-0  17776-2 0  9991
2 23229  24.0959 345.8206 7342489 171.8224 215.6812  2.13878588246185

Suivez OPTUS B3 PKM en temps réel avec AllMySat

Download on the App Store